Weather History for Holdrege, NE

Change the Weather History Date:

Tuesday, February 19, 2013

  Actual Average Record
Temperature  
Mean Temperature 25 °F -  
Max Temperature 35 °F 43 °F 66 °F (1968)
Min Temperature 15 °F 20 °F -5 °F (1993)
Degree Days  
Heating Degree Days 40    
Moisture  
Dew Point 10 °F    
Average Humidity 56    
Maximum Humidity 79    
Minimum Humidity 32    
Precipitation  
Precipitation 0.03 in - - ()
Sea Level Pressure  
Sea Level Pressure 30.20 in    
Wind  
Wind Speed 10 mph (NNE)    
Max Wind Speed 17 mph    
Max Gust Speed 16 mph    
Visibility 10 miles    
Events      
Averages and records for this station are not official NWS values.
T = Trace of Precipitation, MM = Missing Value Source: NWS Daily Summary

Daily Weather History Graph

Daily Weather History Graph

Search for Another Location

Airport:

Trip Planner

Search our weather history database for the weather conditions in past years. The results will help you decide how hot, cold, wet, or windy it might be!

Date:

Astronomy

Feb. 19, 2013 Rise Set
Actual Time 7:25 AM CST 6:17 PM CST
Civil Twilight 6:57 AM CST 6:45 PM CST
Nautical Twilight 6:25 AM CST 7:17 PM CST
Astronomical Twilight 5:54 AM CST 7:48 PM CST
Moon 12:49 PM CST (2/19) 2:58 AM CST (2/19)
Length of Visible Light 11h 48m
Length of Day
10h 52m
Waxing Gibbous, 67% of the Moon is Illuminated
Feb 19
Waxing Gibbous
Feb 25
Full
Mar 4
Last Quarter
Mar 11
New
Mar 19
First Quarter

Hourly Weather History & Observations

Time (CST) Temp. Windchill Dew Point Humidity Pressure Visibility Wind Dir Wind Speed Gust Speed Precip Events Conditions
12:35 AM 26.6 °F 17.5 °F 17.6 °F 69% 30.13 in 10.0 mi North 9.2 mph - N/A   Clear
12:55 AM 25.7 °F 18.0 °F 17.2 °F 70% 30.14 in 10.0 mi NNW 6.9 mph - N/A   Clear
1:15 AM 25.0 °F 15.5 °F 16.5 °F 70% 30.14 in 10.0 mi NNW 9.2 mph - N/A   Clear
1:35 AM 24.3 °F 13.3 °F 15.6 °F 70% 30.14 in 10.0 mi North 11.5 mph - N/A   Clear
1:55 AM 23.5 °F 12.4 °F 15.3 °F 71% 30.14 in 10.0 mi North 11.5 mph - N/A   Clear
2:15 AM 23.0 °F 10.6 °F 15.4 °F 73% 30.14 in 10.0 mi North 13.8 mph - N/A   Clear
2:35 AM 22.3 °F 10.2 °F 14.7 °F 73% 30.15 in 10.0 mi North 12.7 mph - N/A   Clear
2:55 AM 22.5 °F 12.4 °F 13.8 °F 69% 30.17 in 10.0 mi NNW 9.2 mph - N/A   Clear
3:15 AM 21.6 °F 8.8 °F 13.3 °F 70% 30.15 in 10.0 mi North 13.8 mph - N/A   Clear
3:35 AM 21.6 °F 9.9 °F 12.9 °F 69% 30.15 in 10.0 mi NNW 11.5 mph - N/A   Clear
3:55 AM 20.5 °F 11.7 °F 12.0 °F 70% 30.16 in 10.0 mi NW 6.9 mph - N/A   Clear
4:15 AM 19.4 °F 10.4 °F 11.7 °F 72% 30.16 in 10.0 mi WNW 6.9 mph - N/A   Clear
4:35 AM 18.9 °F 8.8 °F 11.7 °F 74% 30.17 in 10.0 mi West 8.1 mph - N/A   Clear
4:55 AM 18.3 °F 8.2 °F 12.0 °F 76% 30.18 in 10.0 mi WNW 8.1 mph - N/A   Clear
5:55 AM 18.0 °F 6.9 °F 11.3 °F 75% 30.20 in 10.0 mi NW 9.2 mph - N/A   Clear
6:15 AM 17.6 °F 7.3 °F 11.1 °F 76% 30.20 in 10.0 mi NW 8.1 mph - N/A   Clear
6:35 AM 17.6 °F 6.4 °F 11.5 °F 77% 30.21 in 10.0 mi NW 9.2 mph - N/A   Clear
6:55 AM 18.1 °F 7.1 °F 11.7 °F 76% 30.21 in 10.0 mi NW 9.2 mph - N/A   Clear
7:15 AM 17.8 °F 8.5 °F 11.3 °F 76% 30.22 in 10.0 mi NW 6.9 mph - N/A   Clear
7:35 AM 16.7 °F 7.2 °F 10.6 °F 77% 30.23 in 10.0 mi NW 6.9 mph - N/A   Clear
7:55 AM 15.8 °F 7.2 °F 10.4 °F 79% 30.24 in 10.0 mi NW 5.8 mph - N/A   Clear
8:15 AM 18.3 °F 8.2 °F 12.2 °F 77% 30.24 in 10.0 mi NNW 8.1 mph - N/A   Clear
8:35 AM 21.0 °F 8.1 °F 13.1 °F 71% 30.24 in 10.0 mi North 13.8 mph - N/A   Clear
8:55 AM 21.9 °F 10.4 °F 13.3 °F 69% 30.25 in 10.0 mi North 11.5 mph - N/A   Clear
9:35 AM 23.9 °F 12.3 °F 13.6 °F 65% 30.27 in 10.0 mi North 12.7 mph - N/A   Clear
9:55 AM 23.9 °F 14.2 °F 13.1 °F 63% 30.28 in 10.0 mi North 9.2 mph - N/A   Clear
10:15 AM 25.3 °F 14.7 °F 13.3 °F 60% 30.27 in 10.0 mi North 11.5 mph 16.1 mph N/A   Clear
10:35 AM 26.8 °F 17.1 °F 13.3 °F 57% 30.27 in 10.0 mi North 10.4 mph - N/A   Clear
11:15 AM 28.6 °F 19.9 °F 12.6 °F 51% 30.28 in 10.0 mi North 9.2 mph - N/A   Clear
11:35 AM 29.1 °F 20.6 °F 12.0 °F 49% 30.28 in 10.0 mi NNW 9.2 mph - 0.03 in   Clear
11:55 AM 29.3 °F 23.2 °F 11.8 °F 48% 30.27 in 10.0 mi NNE 5.8 mph - 0.03 in   Clear
12:15 PM 30.6 °F 25.8 °F 12.4 °F 47% 30.27 in 10.0 mi North 4.6 mph - N/A   Clear
12:35 PM 31.6 °F 26.0 °F 12.2 °F 45% 30.27 in 10.0 mi North 5.8 mph - N/A   Clear
12:55 PM 32.0 °F 25.6 °F 12.2 °F 44% 30.26 in 10.0 mi North 6.9 mph - N/A   Clear
1:15 PM 32.0 °F 27.5 °F 12.0 °F 44% 30.25 in 10.0 mi NE 4.6 mph - N/A   Clear
1:35 PM 32.2 °F 26.7 °F 11.5 °F 42% 30.23 in 10.0 mi NNE 5.8 mph - N/A   Clear
1:55 PM 33.3 °F 27.9 °F 11.3 °F 40% 30.22 in 10.0 mi NNE 5.8 mph - N/A   Clear
2:15 PM 33.6 °F 30.6 °F 10.2 °F 38% 30.21 in 10.0 mi ENE 3.5 mph - N/A   Clear
2:35 PM 34.0 °F 26.6 °F 9.9 °F 37% 30.21 in 10.0 mi NE 9.2 mph - N/A   Clear
2:55 PM 34.7 °F 28.1 °F 9.7 °F 35% 30.20 in 10.0 mi East 8.1 mph - N/A   Clear
3:15 PM 34.9 °F - 8.8 °F 34% 30.20 in 10.0 mi Calm Calm - N/A   Clear
3:35 PM 34.9 °F 27.1 °F 9.0 °F 34% 30.19 in 10.0 mi East 10.4 mph 16.1 mph N/A   Clear
3:55 PM 34.9 °F 28.3 °F 8.2 °F 33% 30.19 in 10.0 mi East 8.1 mph - N/A   Clear
4:15 PM 35.2 °F 28.1 °F 7.7 °F 32% 30.18 in 10.0 mi ENE 9.2 mph - N/A   Clear
4:35 PM 34.7 °F 25.9 °F 7.2 °F 32% 30.18 in 10.0 mi East 12.7 mph 16.1 mph N/A   Clear
4:55 PM 34.3 °F 25.9 °F 6.8 °F 32% 30.17 in 10.0 mi East 11.5 mph - N/A   Clear
5:15 PM 32.9 °F 24.1 °F 5.9 °F 32% 30.17 in 10.0 mi East 11.5 mph - N/A   Clear
6:35 PM 27.5 °F 18.0 °F 5.0 °F 38% 30.17 in 10.0 mi East 10.4 mph - N/A   Clear
6:55 PM 25.7 °F 15.7 °F 5.0 °F 41% 30.18 in 10.0 mi East 10.4 mph - N/A   Clear
7:15 PM 23.5 °F 14.5 °F 5.5 °F 46% 30.19 in 10.0 mi East 8.1 mph - N/A   Clear
7:35 PM 21.4 °F 11.9 °F 5.7 °F 51% 30.20 in 10.0 mi East 8.1 mph - N/A   Clear
7:55 PM 21.2 °F 10.1 °F 5.4 °F 51% 30.20 in 10.0 mi East 10.4 mph - N/A   Clear
8:15 PM 21.2 °F 9.5 °F 5.7 °F 51% 30.20 in 10.0 mi East 11.5 mph - N/A   Clear
8:35 PM 21.7 °F 9.6 °F 5.4 °F 49% 30.21 in 10.0 mi East 12.7 mph - N/A   Clear
8:55 PM 21.4 °F 9.1 °F 5.0 °F 49% 30.21 in 10.0 mi East 12.7 mph - N/A   Clear
9:15 PM 21.2 °F 8.9 °F 4.8 °F 49% 30.20 in 10.0 mi East 12.7 mph - N/A   Clear
9:55 PM 21.2 °F 8.3 °F 4.5 °F 49% 30.21 in 10.0 mi East 13.8 mph - N/A   Clear
10:15 PM 21.2 °F 8.9 °F 4.1 °F 48% 30.23 in 10.0 mi ESE 12.7 mph - N/A   Clear
10:35 PM 20.8 °F 9.0 °F 4.6 °F 50% 30.22 in 10.0 mi East 11.5 mph - N/A   Clear
10:55 PM 20.7 °F 7.6 °F 4.1 °F 49% 30.21 in 10.0 mi East 13.8 mph - N/A   Clear
11:15 PM 20.3 °F 7.2 °F 3.9 °F 49% 30.20 in 10.0 mi East 13.8 mph - N/A   Clear
11:35 PM 20.1 °F 5.4 °F 3.4 °F 48% 30.20 in 10.0 mi East 17.3 mph - N/A   Clear
11:55 PM 19.6 °F 6.8 °F 3.9 °F 51% 30.20 in 10.0 mi East 12.7 mph - N/A   Clear